This is the latest recevied weather packets stored in our database for station/object OE3EMC-13. If no packets are shown the sender has not sent any weather packets the latest 10 day(s).
| Time | Temp. | Humidity | Pressure | Rain* | Wind** | Luminosity | Snow |
|---|---|---|---|---|---|---|---|
| 1777737789 | 25.56° C | 25% | 1100 hPa | 0 mm | - | - | - |
| 1777737194 | 26.11° C | 26% | 1100 hPa | 0 mm | - | - | - |
| 1777736594 | 26.11° C | 26% | 1100 hPa | 0 mm | - | - | - |
| 1777735994 | 27.22° C | 24% | 1100 hPa | 0 mm | - | - | - |
| 1777735395 | 27.22° C | 24% | 1100 hPa | 0 mm | - | - | - |
| 1777734793 | 27.22° C | 24% | 1100 hPa | 0 mm | - | - | - |
| 1777734194 | 27.22° C | 24% | 1100 hPa | 0 mm | - | - | - |
| 1777733593 | 27.22° C | 25% | 1100 hPa | 0 mm | - | - | - |
| 1777732993 | 27.22° C | 25% | 1100 hPa | 0 mm | - | - | - |
| 1777731793 | 27.22° C | 26% | 1100 hPa | 0 mm | - | - | - |
| 1777731192 | 26.67° C | 26% | 1100 hPa | 0 mm | - | - | - |
| 1777730594 | 26.67° C | 26% | 1100 hPa | 0 mm | - | - | - |
| 1777729393 | 26.67° C | 26% | 1100 hPa | 0 mm | - | - | - |
| 1777728793 | 25.56° C | 27% | 1100 hPa | 0 mm | - | - | - |
| 1777728192 | 25.56° C | 27% | 1100 hPa | 0 mm | - | - | - |
| 1777727594 | 26.11° C | 24% | 1100 hPa | 0 mm | - | - | - |
| 1777726992 | 26.11° C | 24% | 1100 hPa | 0 mm | - | - | - |
| 1777726392 | 25.56° C | 27% | 1100 hPa | 0 mm | - | - | - |
| 1777725791 | 25.56° C | 27% | 1100 hPa | 0 mm | - | - | - |
| 1777725191 | 25.56° C | 27% | 1100 hPa | 0 mm | - | - | - |
| 1777724592 | 25.56° C | 27% | 1100 hPa | 0 mm | - | - | - |
| 1777723991 | 25.56° C | 29% | 1100 hPa | 0 mm | - | - | - |
| 1777723392 | 25.56° C | 29% | 1100 hPa | 0 mm | - | - | - |
| 1777722791 | 25° C | 27% | 1100 hPa | 0 mm | - | - | - |
| 1777722192 | 25° C | 27% | 1100 hPa | 0 mm | - | - | - |
* Rain latest hour (hover to see other rain measurements)
** Current wind speed in m/s (hover to see current wind gust speed)